[keps] orb10364.amsat

Ray Hoad ray.hoad at mypbmail.com
Thu Dec 30 18:26:39 PST 2010


SB KEPS @ AMSAT  $ORB10364.O
Orbital Elements  10364.OSCAR

HR AMSAT ORBITAL ELEMENTS FOR OSCAR SATELLITES
FROM WA5QGD FORT WORTH,TX December 30, 2010
Send Subscribe/unsubscribe to KEPS at http://www.amsat.org/mailman/listinfo/keps
BID: ORB10364.O
TO ALL RADIO AMATEURS BT

Satellite: AO-07
Catalog number: 07530
Epoch time:      10363.56819190
Element set:    0966
Inclination:      101.3952 deg
RA of node:       011.8004 deg
Eccentricity:    0.0011819
Arg of perigee:   251.7267 deg
Mean anomaly:     108.2518 deg
Mean motion:   12.53580706 rev/day
Decay rate:       -2.7e-07 rev/day^2
Epoch rev:           65293
Checksum:              288

Satellite: FO-29
Catalog number: 24278
Epoch time:      10363.92836564
Element set:    0480
Inclination:      098.5206 deg
RA of node:       166.0798 deg
Eccentricity:    0.0350700
Arg of perigee:   336.2398 deg
Mean anomaly:     022.2885 deg
Mean motion:   13.52955477 rev/day
Decay rate:       -2.0e-07 rev/day^2
Epoch rev:           70957
Checksum:              335

Satellite: SO-33
Catalog number: 25509
Epoch time:      10363.60988318
Element set:    0872
Inclination:      031.4324 deg
RA of node:       123.3800 deg
Eccentricity:    0.0353850
Arg of perigee:   198.7235 deg
Mean anomaly:     160.0074 deg
Mean motion:   14.28352860 rev/day
Decay rate:        9.6e-07 rev/day^2
Epoch rev:           63601
Checksum:              292

Satellite: RS-22
Catalog number: 27939
Epoch time:      10364.62611429
Element set:     856
Inclination:      097.8644 deg
RA of node:       221.4683 deg
Eccentricity:    0.0013881
Arg of perigee:   154.2896 deg
Mean anomaly:     205.8998 deg
Mean motion:   14.63494177 rev/day
Decay rate:        8.5e-07 rev/day^2
Epoch rev:           38768
Checksum:              361

Satellite: VO-52
Catalog number: 28650
Epoch time:      10363.82430164
Element set:     681
Inclination:      097.6668 deg
RA of node:       049.3430 deg
Eccentricity:    0.0027022
Arg of perigee:   359.1722 deg
Mean anomaly:     000.9469 deg
Mean motion:   14.81879865 rev/day
Decay rate:        7.2e-07 rev/day^2
Epoch rev:           30566
Checksum:              316

Satellite: SO-67
Catalog number: 35870
Epoch time:      10364.55878003
Element set:     426
Inclination:      097.3065 deg
RA of node:       048.2222 deg
Eccentricity:    0.0004244
Arg of perigee:   113.5943 deg
Mean anomaly:     026.3649 deg
Mean motion:   15.21261848 rev/day
Decay rate:       5.85e-06 rev/day^2
Epoch rev:            7130
Checksum:              295

Satellite: HO-68
Catalog number: 36122
Epoch time:      10364.80504183
Element set:     981
Inclination:      100.4430 deg
RA of node:       063.0034 deg
Eccentricity:    0.0007186
Arg of perigee:   247.5100 deg
Mean anomaly:     112.5255 deg
Mean motion:   13.16283564 rev/day
Decay rate:       -4.5e-07 rev/day^2
Epoch rev:            5008
Checksum:              252

/EX
SB KEPS @ AMSAT  $ORB10364.D
Orbital Elements  10364.MICROS

HR AMSAT ORBITAL ELEMENTS FOR THE MICROSATS
FROM WA5QGD FORT WORTH,TX December 30, 2010
Send Subscribe/unsubscribe to KEPS at http://www.amsat.org/mailman/listinfo/keps
BID: ORB10364.D
TO ALL RADIO AMATEURS BT

Satellite: UO-11
Catalog number: 14781
Epoch time:      10364.85227830
Element set:     431
Inclination:      098.0306 deg
RA of node:       056.8900 deg
Eccentricity:    0.0008538
Arg of perigee:   329.8910 deg
Mean anomaly:     030.1834 deg
Mean motion:   14.79874207 rev/day
Decay rate:        9.9e-07 rev/day^2
Epoch rev:           44089
Checksum:              312

Satellite: AO-16
Catalog number: 20439
Epoch time:      10364.82754450
Element set:      80
Inclination:      098.3618 deg
RA of node:       315.2806 deg
Eccentricity:    0.0010288
Arg of perigee:   306.7504 deg
Mean anomaly:     053.2746 deg
Mean motion:   14.31889610 rev/day
Decay rate:        2.7e-07 rev/day^2
Epoch rev:            9352
Checksum:              293

Satellite: LO-19
Catalog number: 20442
Epoch time:      10363.81572679
Element set:    0990
Inclination:      098.3237 deg
RA of node:       319.3216 deg
Eccentricity:    0.0010967
Arg of perigee:   302.0997 deg
Mean anomaly:     057.9126 deg
Mean motion:   14.32118289 rev/day
Decay rate:       1.36e-06 rev/day^2
Epoch rev:           09355
Checksum:              319

Satellite: AO-27
Catalog number: 22825
Epoch time:      10364.44405325
Element set:     712
Inclination:      098.5113 deg
RA of node:       307.5591 deg
Eccentricity:    0.0009250
Arg of perigee:   054.6851 deg
Mean anomaly:     305.5225 deg
Mean motion:   14.29321982 rev/day
Decay rate:       1.75e-06 rev/day^2
Epoch rev:           90008
Checksum:              284

Satellite: IO-26
Catalog number: 22826
Epoch time:      10364.82416340
Element set:     449
Inclination:      098.5053 deg
RA of node:       308.4617 deg
Eccentricity:    0.0009711
Arg of perigee:   048.7040 deg
Mean anomaly:     311.4994 deg
Mean motion:   14.29580391 rev/day
Decay rate:        3.1e-07 rev/day^2
Epoch rev:           90025
Checksum:              291

Satellite: GO-32
Catalog number: 25397
Epoch time:      10364.53331045
Element set:     369
Inclination:      098.3186 deg
RA of node:       001.2075 deg
Eccentricity:    0.0002083
Arg of perigee:   070.5535 deg
Mean anomaly:     289.5889 deg
Mean motion:   14.23193646 rev/day
Decay rate:       1.41e-06 rev/day^2
Epoch rev:           64797
Checksum:              312

Satellite: NO-44
Catalog number: 26931
Epoch time:      10364.65137767
Element set:     643
Inclination:      067.0534 deg
RA of node:       057.7850 deg
Eccentricity:    0.0006573
Arg of perigee:   274.9372 deg
Mean anomaly:     085.0979 deg
Mean motion:   14.29628584 rev/day
Decay rate:       1.60e-06 rev/day^2
Epoch rev:           48283
Checksum:              339

Satellite: SO-50
Catalog number: 27607
Epoch time:      10363.79449620
Element set:    0355
Inclination:      064.5574 deg
RA of node:       122.3388 deg
Eccentricity:    0.0053111
Arg of perigee:   002.6722 deg
Mean anomaly:     357.4637 deg
Mean motion:   14.71624651 rev/day
Decay rate:       1.56e-06 rev/day^2
Epoch rev:           43116
Checksum:              291

Satellite: CO-55
Catalog number: 27844
Epoch time:      10364.09038789
Element set:      10
Inclination:      098.7073 deg
RA of node:       010.2456 deg
Eccentricity:    0.0009596
Arg of perigee:   330.9641 deg
Mean anomaly:     029.0991 deg
Mean motion:   14.20757643 rev/day
Decay rate:        5.0e-07 rev/day^2
Epoch rev:           38890
Checksum:              314

Satellite: CO-57
Catalog number: 27848
Epoch time:      10363.51496051
Element set:    0959
Inclination:      098.7131 deg
RA of node:       008.8156 deg
Eccentricity:    0.0009694
Arg of perigee:   337.1184 deg
Mean anomaly:     022.9557 deg
Mean motion:   14.20544015 rev/day
Decay rate:        1.0e-07 rev/day^2
Epoch rev:           38877
Checksum:              321

Satellite: AO-51
Catalog number: 28375
Epoch time:      10363.86232249
Element set:     859
Inclination:      098.0781 deg
RA of node:       346.3989 deg
Eccentricity:    0.0082837
Arg of perigee:   223.6874 deg
Mean anomaly:     135.7737 deg
Mean motion:   14.40717430 rev/day
Decay rate:        3.7e-07 rev/day^2
Epoch rev:           34168
Checksum:              344

Satellite: CP3
Catalog number: 31129
Epoch time:      10364.57143916
Element set:     760
Inclination:      097.9181 deg
RA of node:       033.4001 deg
Eccentricity:    0.0102185
Arg of perigee:   345.1636 deg
Mean anomaly:     014.6553 deg
Mean motion:   14.52355310 rev/day
Decay rate:       -5.8e-07 rev/day^2
Epoch rev:           19636
Checksum:              275

Satellite: CO-65
Catalog number: 32785
Epoch time:      10363.19159920
Element set:    0875
Inclination:      097.8731 deg
RA of node:       065.1695 deg
Eccentricity:    0.0015253
Arg of perigee:   014.3546 deg
Mean anomaly:     345.8094 deg
Mean motion:   14.81794607 rev/day
Decay rate:       -9.9e-07 rev/day^2
Epoch rev:           14436
Checksum:              339

Satellite: KKS-1
Catalog number: 33493
Epoch time:      10364.64350585
Element set:     175
Inclination:      098.1043 deg
RA of node:       126.0993 deg
Eccentricity:    0.0019080
Arg of perigee:   223.3225 deg
Mean anomaly:     136.6491 deg
Mean motion:   14.81260927 rev/day
Decay rate:       5.53e-06 rev/day^2
Epoch rev:           10456
Checksum:              287

Satellite: SOHLA-1
Catalog number: 33496
Epoch time:      10364.87392391
Element set:     294
Inclination:      098.0684 deg
RA of node:       111.5599 deg
Eccentricity:    0.0005742
Arg of perigee:   305.4353 deg
Mean anomaly:     054.6303 deg
Mean motion:   14.69544504 rev/day
Decay rate:       -6.4e-07 rev/day^2
Epoch rev:           10376
Checksum:              306

Satellite: TISAT-1
Catalog number: 36799
Epoch time:      10364.63505420
Element set:     449
Inclination:      098.1244 deg
RA of node:       066.0794 deg
Eccentricity:    0.0016711
Arg of perigee:   100.8419 deg
Mean anomaly:     259.4680 deg
Mean motion:   14.80275788 rev/day
Decay rate:       3.51e-06 rev/day^2
Epoch rev:            2537
Checksum:              310

Satellite: STUDSAT
Catalog number: 36801
Epoch time:      10363.81251431
Element set:    0119
Inclination:      098.1265 deg
RA of node:       065.1163 deg
Eccentricity:    0.0014877
Arg of perigee:   091.6839 deg
Mean anomaly:     268.6076 deg
Mean motion:   14.79909341 rev/day
Decay rate:       9.21e-06 rev/day^2
Epoch rev:           02524
Checksum:              299

Satellite: RAX
Catalog number: 37223
Epoch time:      10362.43615929
Element set:    0040
Inclination:      071.9728 deg
RA of node:       055.5754 deg
Eccentricity:    0.0022715
Arg of perigee:   245.7465 deg
Mean anomaly:     114.1313 deg
Mean motion:   14.77205443 rev/day
Decay rate:       2.92e-06 rev/day^2
Epoch rev:           00567
Checksum:              278

